Wind_Speed
39 40 39 35 35 37 37 44 50 50 40 42 43 31 30 30 31 12 13 10 9 10 15 15 23 25 21 13 7 5 3 1 2 3 4 4 5 9 16 21 28 28 27 23
44 41 42 41 41 39 40 39 44 49 53 45 38 35 28 34 35 20 18 13 11 12 8 13 18 22 23 17 11 4 1 2 3 1 6 6 10 11 18 24 29 31 23 21
42 43 43 43 44 43 42 42 43 46 53 58 55 43 34 34 37 28 21 17 10 3 8 6 14 18 19 24 17 8 6 4 5 6 6 5 12 15 24 27 22 23 25 23
37 38 43 45 46 46 46 44 45 45 48 51 58 53 44 37 41 37 27 21 18 7 2 2 8 12 17 21 22 11 9 7 5 7 4 7 16 23 23 26 27 29 32 25
37 38 40 44 45 45 46 48 48 49 48 48 48 53 52 51 46 41 32 26 22 13 5 6 1 6 11 15 23 16 13 7 7 9 10 14 20 24 24 30 35 35 27 26
33 33 35 38 40 42 42 46 50 49 48 47 44 50 54 47 45 45 39 31 26 19 15 12 7 4 5 11 16 21 16 14 11 10 15 21 24 22 26 32 36 26 23 26
29 29 32 33 36 38 41 43 45 47 48 50 49 49 58 47 44 50 42 36 30 30 23 17 12 8 5 6 11 15 17 15 15 14 18 21 24 26 28 32 35 23 28 24
19 22 22 23 25 28 32 38 42 46 48 49 48 52 57 63 58 46 46 43 36 33 30 23 18 15 9 6 8 11 13 15 16 20 21 26 32 34 30 26 26 39 28 15
17 17 16 16 18 19 22 25 30 39 44 49 51 53 55 54 55 58 51 42 38 36 32 29 25 21 15 9 6 9 11 12 15 20 21 22 24 27 26 27 28 25 25 19
18 17 18 17 19 23 25 25 26 30 33 42 51 54 55 56 54 53 56 48 45 38 37 33 32 25 20 17 10 7 9 11 12 17 21 20 18 18 21 23 24 24 23 24
21 19 18 22 24 26 28 31 29 29 29 34 41 50 55 55 55 52 60 56 50 45 39 38 34 32 25 23 18 14 9 10 10 16 19 20 21 21 18 20 22 23 23 23
21 21 22 25 26 29 30 31 29 29 30 27 33 43 53 55 57 55 50 60 53 49 45 39 38 35 32 25 23 19 16 13 11 10 16 16 20 23 20 19 19 21 20 19
23 23 24 26 27 28 23 27 23 23 24 26 30 40 51 57 57 55 49 53 54 49 44 46 44 43 40 33 28 24 22 17 15 14 15 16 17 20 21 21 20 20 21 20
27 27 26 26 30 25 19 19 19 23 24 26 28 38 46 52 53 52 46 47 53 47 51 49 49 46 43 43 35 31 30 26 22 22 23 20 18 16 16 22 23 21 24 23
32 32 31 26 30 22 20 18 21 20 20 26 27 37 46 52 53 52 49 50 56 54 49 57 46 55 52 52 45 40 35 30 29 26 27 27 25 23 20 18 15 15 16 19
36 37 34 26 27 24 22 21 24 24 20 21 30 36 45 55 62 62 53 54 46 59 54 44 60 59 60 57 53 49 36 46 40 28 28 30 30 32 29 26 23 19 18 17
32 31 29 28 24 28 26 25 25 26 22 22 30 35 48 59 67 77 76 59 53 54 56 47 56 62 64 63 62 58 49 38 46 42 40 33 34 35 33 31 30 29 25 25
33 29 26 28 25 29 30 31 27 27 26 24 24 31 46 63 73 88 88 73 64 58 65 63 69 73 70 65 66 64 59 49 49 40 45 46 37 35 35 35 33 35 32 33
34 31 29 32 24 24 26 28 27 26 29 26 21 22 45 67 82 90 91 86 71 73 68 68 70 68 73 77 70 69 67 61 56 55 50 51 42 37 35 36 38 38 42 41
37 36 34 33 26 25 29 26 25 26 30 30 27 24 34 61 83 93 89 94 79 72 71 75 60 73 76 84 81 74 70 68 63 59 58 54 52 49 44 48 49 47 44 47
39 38 37 34 29 29 32 30 26 26 31 31 31 28 33 49 73 84 92 92 94 78 72 72 71 65 74 83 79 76 75 74 69 64 63 60 54 56 49 45 43 53 52 45
42 37 35 32 31 32 33 31 29 29 28 30 32 35 37 41 52 77 91 99 96 98 89 81 78 75 75 81 90 85 82 81 76 73 73 65 62 60 54 51 43 45 52 53
43 35 30 34 32 33 32 30 31 30 29 33 36 42 43 48 54 58 83 97 103 100 96 99 95 89 84 80 87 95 92 87 84 82 82 78 75 76 71 66 69 65 57 55
41 34 33 34 35 35 33 33 31 32 32 32 32 39 42 51 55 57 60 70 92 100 107 110 107 109 102 90 79 87 100 97 92 89 88 84 80 80 79 76 76 74 77 67
38 37 33 33 34 38 37 34 34 32 32 31 33 37 41 45 52 62 65 63 65 79 106 107 110 108 105 104 93 89 83 98 100 96 95 92 89 87 87 84 84 85 87 71
37 34 33 34 36 37 35 37 36 34 33 34 36 39 43 48 53 58 61 64 67 65 81 103 113 109 115 117 104 101 98 95 99 107 101 99 96 95 95 93 91 88 90 88
Wind_Direction
240 236 235 233 229 227 223 227 229 230 225 227 229 221 229 231 243 222 257 278 292 346 40 47 40 34 39 45 50 55 25 7 113 137 259 237 196 168 153 134 133 124 122 127
239 240 237 233 232 230 227 223 230 228 222 219 223 221 235 226 237 218 243 262 283 349 52 38 48 43 36 36 34 31 40 313 286 269 306 222 186 164 146 139 144 139 135 129
237 237 236 234 232 231 231 229 224 229 229 224 231 224 221 224 223 222 229 250 243 9 39 51 43 49 42 36 27 14 5 44 310 307 296 207 163 147 143 144 160 152 146 140
236 235 235 237 235 233 233 232 232 225 230 229 228 232 230 227 220 228 225 236 231 248 328 91 57 49 46 38 31 28 6 27 345 345 101 119 143 146 149 146 150 146 144 133
233 233 233 233 237 237 234 233 234 232 228 229 227 226 228 231 225 225 226 236 237 228 203 193 66 61 49 46 45 43 26 30 31 63 103 115 139 146 142 152 141 141 140 134
229 233 236 237 237 238 236 235 234 235 234 231 225 228 227 228 224 219 223 223 237 228 231 232 213 136 81 60 48 43 44 36 66 82 118 119 131 152 149 157 146 142 140 144
230 233 237 239 242 240 239 237 236 238 236 233 225 222 218 208 214 218 219 218 225 238 234 227 227 179 174 88 68 53 52 52 70 103 123 130 138 142 142 151 151 153 143 134
216 223 228 237 242 244 242 240 237 235 233 234 230 226 227 221 218 223 221 221 231 230 233 236 230 220 191 151 87 82 68 79 86 108 115 120 127 129 137 141 142 150 141 143
204 218 229 242 252 259 256 250 240 237 232 231 230 228 227 227 227 223 223 222 221 233 229 232 236 222 197 184 136 99 93 100 112 121 126 125 127 134 136 135 136 136 148 149
218 233 242 256 262 262 267 264 252 242 229 225 228 228 226 224 221 218 214 215 217 224 229 220 235 227 214 205 179 140 121 113 133 144 148 147 146 144 148 153 151 148 148 147
231 248 257 264 267 270 270 267 262 253 244 231 228 226 225 224 219 221 215 213 218 221 217 231 220 231 218 213 198 172 168 142 146 159 158 157 159 158 150 155 161 165 161 161
251 246 256 268 280 278 273 269 265 252 243 237 228 226 221 220 217 215 217 213 213 218 223 223 230 221 231 217 218 198 188 178 166 177 174 177 177 170 168 169 169 168 169 179
253 253 264 275 283 283 268 270 264 249 246 241 230 223 220 214 213 209 213 214 212 213 221 228 224 224 223 224 220 218 201 196 199 200 193 187 200 199 197 197 200 200 201 204
258 267 269 280 286 280 271 267 256 245 249 251 241 226 217 212 208 203 209 207 205 210 226 229 224 222 227 231 219 212 210 211 208 210 208 208 197 201 208 211 215 219 217 222
263 266 272 273 282 277 273 262 263 263 256 254 244 229 211 208 197 193 198 198 212 207 210 225 225 223 210 220 220 214 215 212 213 220 215 215 218 218 208 205 210 211 210 209
263 268 271 272 269 272 274 275 268 267 261 255 241 226 209 203 191 186 182 181 179 202 205 206 209 213 211 216 218 217 214 224 214 228 234 220 219 226 227 222 219 223 226 217
267 272 270 263 259 265 268 274 269 268 262 258 249 230 209 200 190 184 190 184 181 187 201 199 196 211 216 219 217 217 214 223 224 229 229 229 223 225 232 232 230 228 227 230
262 272 270 268 273 271 268 264 264 267 269 260 260 242 215 196 192 193 200 196 202 200 198 201 198 200 210 212 212 216 211 213 217 214 226 233 233 229 232 234 236 238 235 229
261 266 271 269 270 276 265 262 258 256 268 265 260 246 215 197 195 202 204 204 211 210 209 211 210 210 214 216 216 218 213 216 221 224 232 228 231 232 242 240 241 237 236 236
259 260 266 266 270 280 269 264 258 252 258 259 253 241 222 207 203 207 212 210 211 207 211 212 215 216 212 215 219 217 219 220 224 225 227 228 231 231 240 241 238 246 244 240
257 260 263 266 269 278 271 270 262 264 258 253 253 250 236 217 208 213 216 216 218 213 211 215 217 217 220 217 222 222 223 224 223 223 220 223 229 232 231 227 237 250 246 245
258 259 259 263 266 271 272 269 274 267 257 257 255 254 243 230 220 216 218 219 220 221 221 220 218 224 227 223 223 226 225 225 224 225 221 225 226 229 223 228 228 236 237 241
258 258 261 261 264 272 271 275 277 270 268 264 260 252 244 235 228 223 222 221 220 223 226 226 225 227 228 229 226 226 227 226 226 225 224 226 229 232 230 230 233 236 232 233
255 255 259 261 263 272 269 275 271 273 274 270 257 246 242 237 236 237 229 225 227 225 229 230 231 231 233 227 229 230 227 227 228 228 229 230 231 234 230 232 235 239 239 239
248 249 257 262 266 270 271 274 275 276 270 267 254 243 243 241 240 238 240 243 236 231 229 230 230 230 227 229 233 232 229 232 228 229 231 231 231 234 236 234 235 240 234 243
244 248 257 261 264 268 275 278 281 280 274 272 266 253 244 240 242 241 241 243 242 241 230 230 230 231 232 233 232 236 237 237 237 232 231 232 233 234 236 237 236 239 235 237
Height
10910 10911 10914 10919 10922 10923 10929 10930 10932 10936 10943 10948 10951 10957 10961 10963 10964 10970 10969 10970 10969 10966 10966 10966 10960 10954 10953 10952 10948 10947 10945 10944 10943 10943 10941 10940 10940 10940 10941 10944 10947 10950 10951 10953
10898 10903 10907 10910 10913 10917 10920 10925 10925 10929 10935 10940 10944 10949 10954 10957 10959 10966 10968 10969 10966 10966 10966 10964 10962 10958 10954 10953 10951 10950 10948 10945 10944 10943 10940 10940 10941 10941 10943 10947 10950 10950 10953 10956
10888 10892 10896 10900 10904 10908 10912 10917 10920 10922 10924 10931 10937 10943 10949 10954 10955 10962 10966 10967 10966 10965 10965 10964 10963 10961 10957 10952 10950 10949 10946 10945 10944 10942 10940 10938 10939 10941 10943 10948 10952 10953 10957 10960
10879 10882 10886 10890 10893 10898 10903 10908 10910 10916 10917 10923 10929 10937 10945 10947 10952 10955 10960 10964 10965 10965 10965 10966 10965 10963 10960 10956 10953 10949 10947 10945 10945 10941 10939 10938 10939 10944 10947 10950 10954 10957 10961 10962
10868 10872 10875 10878 10883 10889 10894 10897 10902 10905 10910 10914 10924 10929 10935 10941 10948 10952 10957 10959 10962 10963 10964 10965 10965 10964 10964 10961 10956 10951 10949 10947 10945 10942 10940 10940 10943 10947 10950 10955 10958 10962 10964 10966
10860 10865 10869 10871 10875 10878 10885 10888 10891 10897 10904 10910 10920 10922 10927 10937 10941 10947 10953 10956 10959 10963 10963 10964 10963 10964 10965 10963 10960 10956 10953 10951 10947 10946 10944 10945 10946 10949 10953 10958 10963 10966 10968 10969
10855 10859 10861 10864 10866 10870 10875 10879 10884 10889 10894 10899 10908 10914 10914 10922 10929 10937 10944 10950 10954 10957 10961 10963 10964 10964 10965 10964 10962 10960 10956 10954 10951 10950 10950 10950 10950 10952 10956 10961 10966 10969 10973 10975
10850 10851 10854 10857 10860 10862 10866 10869 10874 10878 10883 10890 10899 10903 10904 10916 10924 10931 10938 10946 10952 10953 10957 10960 10962 10964 10964 10964 10962 10962 10960 10958 10956 10955 10956 10955 10956 10957 10960 10963 10966 10972 10975 10977
10845 10848 10850 10852 10855 10858 10860 10862 10865 10867 10873 10878 10883 10889 10895 10903 10913 10924 10931 10940 10946 10948 10952 10957 10960 10960 10962 10962 10962 10961 10961 10961 10960 10960 10961 10962 10964 10965 10965 10966 10967 10972 10976 10979
10843 10844 10847 10850 10850 10850 10852 10854 10855 10857 10861 10865 10868 10876 10884 10888 10899 10909 10918 10928 10936 10941 10944 10949 10954 10958 10959 10961 10961 10961 10962 10961 10964 10965 10964 10966 10967 10968 10969 10970 10971 10972 10975 10979
10838 10841 10843 10841 10843 10845 10844 10844 10847 10849 10852 10856 10859 10863 10872 10881 10891 10899 10907 10919 10927 10932 10939 10942 10946 10953 10957 10957 10958 10959 10962 10962 10964 10966 10968 10967 10968 10969 10971 10972 10974 10977 10978 10980
10835 10836 10836 10835 10835 10835 10834 10835 10836 10837 10840 10844 10848 10854 10858 10867 10875 10886 10896 10905 10914 10922 10929 10936 10940 10943 10949 10955 10956 10958 10961 10963 10963 10966 10967 10969 10971 10970 10971 10974 10976 10978 10980 10981
10826 10829 10829 10828 10827 10826 10827 10825 10827 10829 10832 10835 10836 10837 10842 10851 10863 10875 10887 10897 10909 10915 10920 10925 10932 10936 10941 10946 10952 10955 10957 10959 10961 10963 10964 10965 10970 10973 10972 10973 10976 10979 10980 10981
10818 10820 10822 10821 10818 10819 10820 10819 10819 10821 10823 10825 10826 10829 10836 10848 10861 10872 10881 10889 10899 10906 10908 10914 10922 10931 10938 10940 10946 10948 10951 10953 10956 10959 10962 10964 10966 10970 10972 10973 10974 10976 10980 10981
10808 10811 10812 10815 10809 10813 10813 10814 10813 10815 10818 10817 10817 10816 10824 10837 10851 10863 10870 10877 10885 10894 10899 10903 10911 10918 10929 10931 10935 10940 10945 10949 10950 10954 10956 10959 10963 10966 10969 10972 10974 10975 10978 10980
10799 10801 10802 10806 10805 10805 10805 10806 10805 10807 10809 10809 10805 10807 10817 10826 10835 10849 10861 10862 10867 10878 10884 10890 10895 10903 10911 10917 10922 10930 10942 10945 10945 10948 10951 10953 10956 10961 10964 10968 10970 10972 10976 10979
10788 10790 10792 10793 10798 10797 10799 10798 10799 10799 10801 10800 10797 10799 10806 10817 10830 10839 10840 10845 10853 10861 10872 10876 10880 10884 10893 10901 10910 10918 10927 10932 10937 10940 10946 10947 10950 10953 10959 10962 10965 10968 10971 10973
10780 10781 10781 10782 10787 10787 10788 10788 10791 10789 10790 10792 10791 10790 10795 10806 10817 10823 10827 10835 10840 10847 10853 10861 10868 10873 10880 10889 10896 10903 10912 10919 10928 10932 10937 10941 10945 10948 10952 10956 10959 10963 10966 10967
10770 10772 10772 10772 10776 10778 10778 10780 10782 10782 10781 10783 10783 10780 10784 10796 10805 10810 10816 10824 10828 10837 10845 10853 10856 10863 10872 10877 10883 10891 10900 10906 10913 10921 10926 10932 10937 10940 10944 10947 10951 10952 10956 10960
10761 10762 10763 10763 10768 10769 10766 10770 10771 10774 10773 10773 10774 10774 10776 10783 10788 10793 10800 10808 10813 10821 10830 10838 10842 10850 10856 10864 10872 10877 10887 10895 10903 10910 10915 10920 10924 10929 10934 10935 10937 10943 10945 10950
10749 10752 10753 10754 10758 10759 10756 10758 10763 10764 10763 10765 10767 10769 10769 10772 10779 10782 10781 10789 10798 10808 10815 10824 10830 10834 10843 10852 10857 10863 10870 10878 10887 10895 10902 10908 10913 10919 10924 10926 10931 10933 10937 10938
10737 10742 10743 10745 10748 10749 10747 10749 10752 10754 10756 10757 10758 10759 10763 10765 10768 10769 10772 10773 10782 10791 10800 10808 10817 10824 10828 10836 10845 10849 10856 10864 10872 10880 10889 10896 10902 10908 10913 10914 10919 10924 10924 10927
10726 10731 10735 10734 10737 10738 10738 10741 10740 10742 10745 10745 10746 10744 10746 10751 10755 10759 10761 10765 10773 10779 10785 10791 10800 10807 10814 10821 10827 10835 10840 10848 10855 10864 10872 10881 10888 10891 10899 10902 10907 10912 10911 10913
10717 10721 10724 10725 10726 10728 10728 10730 10733 10731 10732 10731 10731 10729 10732 10737 10742 10743 10748 10755 10766 10769 10769 10774 10782 10790 10797 10804 10808 10816 10825 10830 10837 10847 10855 10863 10870 10876 10883 10885 10889 10894 10897 10898
10710 10711 10714 10716 10717 10715 10716 10719 10721 10722 10721 10720 10720 10719 10721 10724 10726 10728 10731 10737 10744 10747 10748 10753 10760 10767 10776 10782 10789 10798 10807 10814 10819 10827 10837 10844 10852 10857 10863 10867 10871 10875 10878 10883
10699 10703 10706 10707 10705 10704 10707 10706 10707 10708 10707 10706 10705 10707 10710 10710 10709 10709 10712 10716 10719 10723 10728 10732 10739 10745 10752 10761 10770 10778 10786 10794 10801 10808 10814 10824 10831 10837 10842 10848 10851 10858 10862 10865